| time (UTC) | temp F | wind direction | speed knots | gust knots | rain 1hr in | rain 24hr in | rain mn in | humidity % | barometer mb |
| 20260504181531 | 66 | 211 | 4.3 | 10.4 | 0.00 | 0.00 | 0.00 | 39 | 1005.5 |
| 20260504180014 | 64 | 279 | 3.5 | 9.6 | 0.00 | 0.00 | 0.00 | 46 | 1005.6 |
| 20260504174522 | 62 | 285 | 1.7 | 7.8 | 0.00 | 0.00 | 0.00 | 41 | 1005.8 |
| 20260504173022 | 63 | 266 | 3.5 | 12.2 | 0.00 | 0.00 | 0.00 | 41 | 1005.7 |
| 20260504171524 | 63 | 9 | 2.6 | 10.4 | 0.00 | 0.00 | 0.00 | 41 | 1005.7 |
| 20260504081529 | 0 | 0.0 | 0.0 | 0.00 | 0.00 | 0.00 | 1008.2 | ||
| 20260504050018 | 32 | 269 | 0.0 | 1.7 | 0.00 | 0.00 | 0.00 | 90 | 1008.4 |
| 20260504044532 | 30 | 333 | 0.0 | 0.0 | 0.00 | 0.00 | 0.00 | 90 | 1008.5 |
| 20260504043034 | 30 | 333 | 0.0 | 0.0 | 0.00 | 0.00 | 0.00 | 90 | 1008.5 |
| 20260504041507 | 29 | 333 | 0.0 | 0.0 | 0.00 | 0.00 | 0.00 | 88 | 1008.4 |
| 20260504040021 | 29 | 326 | 0.0 | 0.0 | 0.00 | 0.00 | 0.00 | 87 | 1008.3 |
| 20260504034518 | 29 | 326 | 0.0 | 0.0 | 0.00 | 0.00 | 0.00 | 86 | 1008.3 |
| 20260504033022 | 30 | 298 | 0.0 | 0.0 | 0.00 | 0.00 | 0.00 | 85 | 1008.4 |
| 20260504031525 | 30 | 298 | 0.0 | 0.0 | 0.00 | 0.00 | 0.00 | 85 | 1008.4 |
| 20260504030015 | 30 | 300 | 0.0 | 0.0 | 0.00 | 0.00 | 0.00 | 84 | 1008.2 |
| 20260504024516 | 31 | 300 | 0.0 | 0.0 | 0.00 | 0.00 | 0.00 | 82 | 1008.3 |
| 20260504023024 | 32 | 300 | 0.0 | 0.0 | 0.00 | 0.00 | 0.00 | 81 | 1008.4 |
| 20260504021532 | 32 | 300 | 0.0 | 0.0 | 0.00 | 0.00 | 0.00 | 80 | 1008.6 |
| 20260504020035 | 33 | 300 | 0.0 | 0.0 | 0.00 | 0.00 | 0.00 | 79 | 1008.4 |
| 20260504014517 | 33 | 291 | 0.0 | 0.0 | 0.00 | 0.00 | 0.00 | 78 | 1008.4 |
| 20260504013019 | 34 | 290 | 0.0 | 0.0 | 0.00 | 0.00 | 0.00 | 77 | 1008.3 |
| 20260504011524 | 35 | 290 | 0.0 | 0.0 | 0.00 | 0.00 | 0.00 | 78 | 1008.1 |
| 20260504010004 | 35 | 290 | 0.0 | 0.0 | 0.00 | 0.00 | 0.00 | 77 | 1007.7 |
| 20260504004517 | 36 | 290 | 0.0 | 0.0 | 0.00 | 0.00 | 0.00 | 76 | 1007.6 |
| 20260504003013 | 37 | 290 | 0.0 | 1.7 | 0.00 | 0.00 | 0.00 | 74 | 1007.6 |
| 20260504001505 | 39 | 281 | 0.9 | 2.6 | 0.00 | 0.00 | 0.00 | 71 | 1007.3 |
| 20260504000004 | 42 | 296 | 0.0 | 1.7 | 0.00 | 0.00 | 0.00 | 60 | 1007.2 |
| 20260503234509 | 44 | 255 | 0.0 | 1.7 | 0.00 | 0.00 | 0.00 | 53 | 1007.2 |
| 20260503233010 | 45 | 69 | 2.6 | 6.1 | 0.00 | 0.00 | 0.00 | 53 | 1007.0 |
| 20260503231521 | 46 | 209 | 0.0 | 3.5 | 0.00 | 0.00 | 0.00 | 49 | 1006.9 |
| 20260503230004 | 46 | 319 | 0.9 | 4.3 | 0.00 | 0.00 | 0.00 | 49 | 1006.9 |
| 20260503224508 | 46 | 304 | 2.6 | 5.2 | 0.00 | 0.00 | 0.00 | 47 | 1006.9 |
| 20260503223013 | 46 | 333 | 1.7 | 4.3 | 0.00 | 0.00 | 0.00 | 51 | 1006.8 |
| 20260503221515 | 47 | 275 | 1.7 | 5.2 | 0.00 | 0.00 | 0.00 | 47 | 1006.7 |
| 20260503220018 | 47 | 288 | 1.7 | 7.8 | 0.00 | 0.00 | 0.00 | 47 | 1006.7 |
| 20260503214508 | 48 | 252 | 3.5 | 8.7 | 0.00 | 0.00 | 0.00 | 47 | 1006.5 |
| 20260503213007 | 48 | 350 | 2.6 | 9.6 | 0.00 | 0.00 | 0.00 | 48 | 1006.4 |
| 20260503211513 | 47 | 231 | 0.9 | 7.8 | 0.00 | 0.00 | 0.00 | 47 | 1006.4 |
| 20260503210016 | 47 | 347 | 0.9 | 10.4 | 0.00 | 0.00 | 0.00 | 46 | 1006.3 |
| 20260503204522 | 47 | 325 | 2.6 | 7.8 | 0.00 | 0.00 | 0.00 | 48 | 1006.5 |
| 20260503203004 | 47 | 329 | 2.6 | 10.4 | 0.00 | 0.01 | 0.00 | 47 | 1006.2 |
| 20260503201512 | 48 | 351 | 4.3 | 13.9 | 0.00 | 0.02 | 0.00 | 43 | 1006.2 |
| 20260503200016 | 49 | 223 | 3.5 | 13.0 | 0.00 | 0.03 | 0.00 | 44 | 1006.1 |
| 20260503194521 | 48 | 304 | 3.5 | 13.0 | 0.00 | 0.04 | 0.00 | 40 | 1006.2 |
| 20260503193031 | 48 | 5 | 4.3 | 11.3 | 0.00 | 0.06 | 0.00 | 45 | 1006.2 |
| 20260503191515 | 47 | 246 | 2.6 | 12.2 | 0.00 | 0.08 | 0.00 | 42 | 1006.3 |
| 20260503190012 | 48 | 279 | 2.6 | 12.2 | 0.00 | 0.08 | 0.00 | 45 | 1006.4 |
| 20260503184515 | 47 | 322 | 6.1 | 13.9 | 0.00 | 0.08 | 0.00 | 43 | 1006.4 |
| 20260503183020 | 48 | 83 | 0.9 | 12.2 | 0.00 | 0.08 | 0.00 | 44 | 1006.0 |